STARLINK-34786, 65391

Orbit data source: Space-Track

STARLINK-34786, 65391 is a payload satellite owned by SpaceX/Seattle (US) in SSO that was launched on Sat, 30 Aug 2025 UTC via an FALCON 9 launch vehicle from the Air Force Western Test Range (AFWTR). Payload-class satellites include a variety of spacecraft equipped with specific instruments for various scientific and technological missions. These include communications satellites like Starlink; space stations such as the ISS; scientific satellites like the Hubble; Earth observation satellites from companies like Planet Labs, Umbra, and HawkEye 360; GPS; miniature CubeSats for education and research; and military/defense satellites.

Loading next visibility...
Identifier
65391, 2025-191N
Orbit
SSO
Country
Flag of USUS
Related business
Manufacturer
SpaceX/Seattle
Mission
Operational Commercial Communications
Bus & Motor
STARLINK V2MO, Unknown motor
Mass
575 kg wet, ~530 kg dry
Launch date (UTC)
2025-08-30 (7 months ago)
Launch vehicle
FALCON 9
Launch site
Air Force Western Test Range (AFWTR)
Object type
Payload
Rocket body
Debris
Shape & HBR
Box + 2 Pan, 17.7 m
Radar Cross Section
36.964 m², Large (>1 m²)

Expand to show TLE details & history
Last TLE update: 17 hours ago

TLE from 17 hours ago
0 STARLINK-34786
1 65391U 25191N   26093.61986776  .00013147  00000-0  91360-3 0  9990
2 65391  97.6022 326.1436 0002028  89.4175 270.7284 15.05650854 34021
Epoch: 2026-04-03T14:52Z
TLE epoch observation values (Epoch: 2026-04-03T14:52:36.574Z)
Latitude
-0.00004°
Longitude
-88.96017°
Altitude
552.556 km
Speed
7.586 km/s
True Right ascension
21h 44m 34s
True Declination
0° 00' 00"
Sunlit
Object was in daylight at epoch
Visualization orbit readout
Latitude
Unknown
Longitude
Unknown
Altitude
Unknown
Speed
Unknown
Apparent Right ascension
Unknown
Apparent Declination
Unknown
Sunlit
N/A
Visualization observer readout
Local Sidereal Time
13:20:54
Azimuth
Unknown
Elevation
Unknown
Doppler factor
Unknown
Orbital elements
Apogee altitude
547.906 km
Perigee altitude
545.098 km
Semi-major axis
6,924.639 km
Eccentricity
0.0002
Inclination
97.6022°
RAAN
326.1436°
Arg. of periapsis
89.4175°
True anomaly
270.70516°
Mean anomaly
270.7284°
Eccentric anomaly
270.71678°
Mean motion
3.76658 °/min
Orbital period
95.58 mins
BSTAR
0.0009136
Loading maneuver chart data...
Computing Atmospheric mass density...
Loading historical data...
Loading historical data...
Loading historical data...
Loading historical data...
Loading historical data...
Loading historical data...
Loading historical data...

Documentation

Showing up to 5 results
|